Погода в Новой Порубежке

Россия / Саратовская область     51°45′12″N   49°40′26″E
темп.,
°C
ветер,
м/с
пор.,
м/с
влажн.,
%
обл.,
%
осадки,
мм/ч
давл.,
гПа
погр.,
м
12 апреля, пн
пн1201:00+12юв41070100 0.0 1029173
04:00+11юв4772100 0.0 1030105
07:00+10вюв4673100 0.0 103195
10:00+15юв4658100 0.0 1032312
13:00+20юв454197 0.0 1032891
16:00+20вюв563847 0.0 10321207
19:00+16в465814 0.0 103291
22:00+13в496998 0.0 1033135
13 апреля, вт
вт1301:00+10вюв467463 0.0 103385
04:00+9вюв46725 0.0 103478
07:00+8вюв49725 0.0 1034160
10:00+13вюв694430 0.0 1034450
13:00+17вюв67325 0.0 1033823
16:00+18вюв67295 0.0 1032983
19:00+14вюв47495 0.0 1031103
22:00+10вюв410575 0.0 1032147
14 апреля, ср
ср1401:00+8вюв47665 0.0 103194
04:00+7в47775 0.0 103098
07:00+7в49875 0.0 1030181
10:00+13вюв68655 0.0 1029513
13:00+17вюв67495 0.0 10271008
16:00+18вюв67460 0.0 10251273
19:00+15в46680 0.0 1024104
22:00+12в47810 0.0 1024102
15 апреля, чт
чт1501:00+10в47790 0.0 1023103
04:00+9вюв45820 0.0 102271
07:00+9вюв35800 0.0 1022105
10:00+15юв45610 0.0 1021402
13:00+19юв454631 0.0 10201057
16:00+20юв4442100 0.0 10191502
19:00+17вюв3356100 0.0 101821
22:00+13вюв335887 0.0 101824
16 апреля, пт
пт1601:00+12вюв3361100 0.0 101719
04:00+10в336595 0.0 101625
07:00+10вюв336985 0.0 101643
10:00+15юв225186 0.0 1015318
13:00+19ююв113941 0.0 1015890
16:00+20з1232100 0.0 10141957
19:00+17ссв11455 0.0 101311
22:00+15ссв114897 0.0 101211